Location: Ravensburg
(48.5621°N, 13.4088°E)
Time: 08:53:29
(UTC+02:00)

ISS - Visible Passes

Search period start: 25 May 2018 00:00
Search period end: 04 June 2018 00:00
Orbit: 402 x 407 km, 51.6° (Epoch: 25 May)

Date Brightness Start Highest point End Pass type
(mag) Time Alt. Az. Time Alt. Az. Time Alt. Az.
25 May -3.0 00:30:18 10° WNW 00:33:31 50° N 00:35:43 18° E visible
25 May -2.2 02:06:51 10° WNW 02:08:18 24° W 02:08:18 24° W visible
25 May -3.6 22:01:13 10° WSW 22:04:29 74° NNW 22:07:45 10° ENE visible
25 May -2.8 23:38:02 10° WNW 23:41:13 46° N 23:44:24 10° ENE visible
26 May -3.4 01:14:38 10° WNW 01:17:14 54° WNW 01:17:14 54° WNW visible
26 May -2.8 22:45:43 10° W 22:48:55 47° N 22:52:06 10° ENE visible
27 May -3.5 00:22:24 10° WNW 00:25:40 66° NNE 00:26:25 47° ENE visible
27 May -3.0 21:53:22 10° W 21:56:36 53° N 21:59:49 10° ENE visible
27 May -3.1 23:30:10 10° WNW 23:33:23 53° N 23:35:41 17° E visible
28 May -2.2 01:06:42 10° WNW 01:08:18 25° W 01:08:18 25° W visible
28 May -2.8 22:37:52 10° WNW 22:41:03 47° N 22:44:14 10° E visible
29 May -4.0 00:14:26 10° WNW 00:17:38 79° SW 00:17:38 79° SW visible
29 May -2.8 21:45:31 10° WNW 21:48:43 46° N 21:51:53 10° ENE visible
29 May -3.7 23:22:10 10° WNW 23:25:27 74° NNE 23:27:01 28° E visible
30 May -1.4 00:58:54 10° W 00:59:38 15° W 00:59:38 15° W visible
30 May -3.2 22:29:54 10° WNW 22:33:08 57° NNE 22:36:22 10° E visible
31 May -3.1 00:06:27 10° WNW 00:09:02 39° WSW 00:09:02 39° WSW visible
31 May -2.9 21:37:35 10° WNW 21:40:47 49° N 21:43:58 10° E visible
31 May -3.9 23:14:07 10° WNW 23:17:23 69° SSW 23:18:27 38° SE visible
01 Jun -3.8 22:21:49 10° WNW 22:25:06 82° NNE 22:27:53 14° ESE visible
01 Jun -2.1 23:58:39 10° W 00:00:31 21° WSW 00:00:31 21° WSW visible
02 Jun -3.1 23:06:06 10° WNW 23:09:10 37° SSW 23:09:59 31° S visible
03 Jun -3.7 22:13:42 10° WNW 22:16:56 59° SSW 22:19:28 15° SE visible
03 Jun -1.2 23:51:38 10° WSW 23:52:06 11° WSW 23:52:06 11° WSW visible
